map of KUH home
KUH - Airport
Location
City:  Kushiro, Hokkaido, Japan
Name:Kushiro Airport
ICAO:RJCK
IATA:KUH

Details
Type:Airport (Aerodrome, Airfield)
Use:Public/Civil
Latitude:43°02'27"N (43.040967)
Longitude:144°11'35"E (144.192986)
Datum:WGS 1984
Elevation:327 ft (100 m)
Variation:9.07°W (WMM2015v2 magnetic declination)
-0.06° annual change
Runways:1
Longest:8202 × 150 ft (2500 × 45.5 m), paved

Time
Time Zone:UTC+9
Local Time:

Weather
METAR:RJCK 041100Z 25019KT 210V280 9999 FEW030 M06/M15 Q1001
TAF:RJCK 041110Z 0412/0518 28018G30KT 9999 FEW040
BECMG 0509/0512 04004KT

Related Locations
Nearby:
Farthest:CTQ: 11284 mi / 18159 km
Santa Vitória do Palmar [Aeropuerto Fernando Ferrari], RS, BR

Find:

   beyond  
but within

Other Information
Maps:
NOTAMs:
Links:
Sources:

  
  • flag of Japan
  • flag of Hokkaido
  

Sectional Chart

Flight Planning
at skyvector.com

Satellite Image

Google Maps Satellite view

 

Copyright © 2004-2019 Karl L. Swartz. All rights reserved.
The Great Circle Mapper name and logo are trademarks of the Great Circle Mapper.
All other trademarks mentioned herein belong to their respective owners.
Please see credits for attibutions and further copyright information.

  Follow gcmap on Facebook Follow gcmap on Twitter GCmap on LinkedIn

hCard Microformat

Geo Microformat